EW5956 Sibenik HR current weather conditions

sailwx.info

Wind from 018

Air temperature 12.8° C
Dewpoint 12.3° C

Last reported at 2019-Dec-07 12:01 UTC.
Time now 2019-Dec-07 12:32 UTC

Location: N 43°43' E 015°54'.
View on Google Maps.

See reports from other nearby stations

  
Tides and Currents Weather Stations Pressure Air Temp Water Temp Dewpoint Dewpoint Depression Visibility Wind Speed Wind Dir Waves Ship Positions
date/time (UTC)wind fromknots sea level pressurealtimeterstation pressurevisibilityair tempwater tempwave heightnotes
2019-Dec-07 12:01 018 12.8
2019-Dec-07 11:51 052 12.2
2019-Dec-07 11:46 085 12.8
2019-Dec-07 11:41 078 12.8
2019-Dec-07 11:31 356 1 gusting 2 12.8
2019-Dec-07 11:26 048 1 gusting 4 12.8
2019-Dec-07 11:21 020 13.3
2019-Dec-07 11:16 125 13.3
2019-Dec-07 11:11 125 13.3
2019-Dec-07 11:01 125 13.3
2019-Dec-07 10:56 125 13.3
2019-Dec-07 10:51 125 13.3
2019-Dec-07 10:46 125 13.3
2019-Dec-07 10:41 126 13.3
2019-Dec-07 10:31 126 13.3
2019-Dec-07 10:26 126 12.8
2019-Dec-07 10:21 126 12.2
2019-Dec-07 10:16 126 12.8
2019-Dec-07 10:11 126 12.8
2019-Dec-07 10:01 125 12.8
2019-Dec-07 09:56 126 12.8
2019-Dec-07 09:51 125 12.2
2019-Dec-07 09:46 211 12.2
2019-Dec-07 09:41 211 12.2
2019-Dec-07 09:31 211 11.7
2019-Dec-07 09:26 211 11.7
2019-Dec-07 09:21 211 11.7
2019-Dec-07 09:16 334 11.7
2019-Dec-07 09:11 334 11.1
2019-Dec-07 09:01 334 11.1
2019-Dec-07 08:56 334 11.1
2019-Dec-07 08:51 336 11.1
2019-Dec-07 08:46 337 11.1
2019-Dec-07 08:41 337 11.1
2019-Dec-07 08:16 003 11.1
2019-Dec-07 08:11 003 11.1
2019-Dec-07 08:01 003 10.0
2019-Dec-07 07:56 003 9.4
2019-Dec-07 07:51 003 9.4
2019-Dec-07 07:46 003 9.4
2019-Dec-07 07:41 003 9.4
2019-Dec-07 07:31 335 10.0
2019-Dec-07 07:26 335 9.4
2019-Dec-07 07:21 335 10.0
2019-Dec-07 07:16 335 9.4
2019-Dec-07 07:11 335 9.4
2019-Dec-07 07:01 333 9.4
2019-Dec-07 06:56 333 9.4
2019-Dec-07 06:51 333 9.4
2019-Dec-07 06:46 334 9.4
2019-Dec-07 06:41 334 9.4
2019-Dec-07 06:31 333 9.4
2019-Dec-07 06:26 333 9.4
2019-Dec-07 06:21 333 9.4
2019-Dec-07 06:16 333 9.4
2019-Dec-07 06:11 333 9.4
2019-Dec-07 06:01 333 9.4
2019-Dec-07 05:56 016 9.4
2019-Dec-07 05:51 347 9.4
2019-Dec-07 05:46 347 9.4
2019-Dec-07 05:41 347 9.4
2019-Dec-07 05:31 347 9.4
2019-Dec-07 05:26 347 9.4
2019-Dec-07 05:21 347 9.4
2019-Dec-07 05:16 347 9.4
2019-Dec-07 05:11 347 9.4
2019-Dec-07 05:01 347 9.4
2019-Dec-07 04:56 347 9.4
2019-Dec-07 04:51 347 9.4
2019-Dec-07 04:46 347 9.4
2019-Dec-07 04:41 347 9.4
2019-Dec-07 04:31 346 9.4
2019-Dec-07 04:26 346 9.4
2019-Dec-07 04:21 346 9.4
2019-Dec-07 04:16 346 10.0
2019-Dec-07 04:11 346 9.4
2019-Dec-07 04:01 346 9.4
2019-Dec-07 03:56 346 9.4
2019-Dec-07 03:51 346 9.4
2019-Dec-07 03:46 346 9.4
2019-Dec-07 03:41 346 10.0
2019-Dec-07 03:31 293 10.0
2019-Dec-07 03:26 293 9.4
2019-Dec-07 03:21 293 10.0
2019-Dec-07 03:16 347 10.0
2019-Dec-07 03:11 346 10.0
2019-Dec-07 03:01 235 9.4
2019-Dec-07 02:56 235 9.4
2019-Dec-07 02:51 235 9.4
2019-Dec-07 02:46 235 10.0
2019-Dec-07 02:41 234 10.0
2019-Dec-07 02:31 234 10.0
2019-Dec-07 02:26 234 10.0
2019-Dec-07 02:21 234 10.0
2019-Dec-07 02:16 234 10.0
2019-Dec-07 02:11 234 10.0
2019-Dec-07 02:01 238 10.0
2019-Dec-07 01:56 211 10.0
2019-Dec-07 01:51 211 10.0
2019-Dec-07 01:46 259 10.0
2019-Dec-07 01:41 315 10.0
2019-Dec-07 01:31 296 1 gusting 5 10.0
2019-Dec-07 01:26 267 0 gusting 5 10.0
2019-Dec-07 01:21 059 10.0
2019-Dec-07 01:16 321 10.0
2019-Dec-07 01:11 342 10.0
2019-Dec-07 01:01 343 10.0
2019-Dec-07 00:56 338 10.0
2019-Dec-07 00:51 338 10.0
2019-Dec-07 00:46 338 10.0
2019-Dec-07 00:41 338 10.0
2019-Dec-07 00:31 338 10.0
2019-Dec-07 00:26 338 10.0
2019-Dec-07 00:21 338 10.0
2019-Dec-07 00:16 338 10.0
2019-Dec-07 00:11 338 10.0
2019-Dec-07 00:01 338 10.0
2019-Dec-06 23:56 338 10.0
2019-Dec-06 23:51 338 10.0
2019-Dec-06 23:46 338 10.0
2019-Dec-06 23:41 338 10.0
2019-Dec-06 23:26 341 10.0
2019-Dec-06 23:21 348 10.6
2019-Dec-06 23:16 348 10.6
2019-Dec-06 23:11 348 10.6
2019-Dec-06 23:01 334 10.6
2019-Dec-06 22:56 334 10.6
2019-Dec-06 22:51 334 10.6
2019-Dec-06 22:46 334 10.6
2019-Dec-06 22:41 348 10.6
2019-Dec-06 22:31 348 10.6
2019-Dec-06 22:26 348 11.1
2019-Dec-06 22:21 335 11.1
2019-Dec-06 22:16 335 11.1
2019-Dec-06 22:11 335 11.1
2019-Dec-06 22:01 335 11.1
2019-Dec-06 21:56 335 11.1
2019-Dec-06 21:51 281 0 gusting 2 10.6
2019-Dec-06 21:46 305 0 gusting 2 11.1
2019-Dec-06 21:41 331 0 gusting 8 11.1
2019-Dec-06 21:31 297 2 gusting 4 11.1
2019-Dec-06 21:26 092 11.1
2019-Dec-06 21:21 094 1 gusting 6 11.1
2019-Dec-06 21:16 087 4 gusting 6 11.1
2019-Dec-06 21:11 098 5 gusting 7 11.1
2019-Dec-06 21:01 104 4 gusting 6 11.1
2019-Dec-06 20:56 151 11.1
2019-Dec-06 20:51 152 1 gusting 5 11.1
2019-Dec-06 20:46 107 0 gusting 4 11.1
2019-Dec-06 20:41 127 0 gusting 4 11.1
2019-Dec-06 20:31 313 0 gusting 2 11.1
2019-Dec-06 20:26 319 2 gusting 4 11.1
2019-Dec-06 20:21 153 11.1
2019-Dec-06 20:16 190 11.1
2019-Dec-06 20:11 136 0 gusting 4 11.1
2019-Dec-06 20:01 112 11.1
2019-Dec-06 19:56 120 0 gusting 5 11.1
2019-Dec-06 19:51 127 2 gusting 5 11.1
2019-Dec-06 19:46 129 1 gusting 6 11.7
2019-Dec-06 19:41 103 4 gusting 7 11.7
2019-Dec-06 19:31 126 2 gusting 6 11.7
2019-Dec-06 19:26 121 2 gusting 5 11.1
2019-Dec-06 19:21 116 0 gusting 2 11.1
2019-Dec-06 19:16 099 0 gusting 2 11.1
2019-Dec-06 19:11 126 0 gusting 4 11.1
2019-Dec-06 19:01 119 10.6
2019-Dec-06 18:56 099 10.6
2019-Dec-06 18:51 099 10.6
2019-Dec-06 18:46 105 0 gusting 1 10.6
2019-Dec-06 18:41 043 0 gusting 4 10.6
2019-Dec-06 18:31 248 10.6
2019-Dec-06 18:26 261 10.6
2019-Dec-06 18:21 008 10.6
2019-Dec-06 18:16 008 10.6
2019-Dec-06 18:11 008 11.1
2019-Dec-06 18:01 008 10.6
2019-Dec-06 17:56 008 11.1
2019-Dec-06 17:51 008 11.1
2019-Dec-06 17:46 236 11.1
2019-Dec-06 17:41 067 2 gusting 7 11.7
2019-Dec-06 17:31 354 2 gusting 5 11.1
2019-Dec-06 17:26 344 4 gusting 5 11.7
2019-Dec-06 17:21 311 3 gusting 5 11.1
2019-Dec-06 17:16 240 2 gusting 5 11.7
2019-Dec-06 17:11 155 11.7
2019-Dec-06 17:01 105 1 gusting 6 12.2
2019-Dec-06 16:56 103 2 gusting 6 12.2
2019-Dec-06 16:51 096 3 gusting 7 11.7
2019-Dec-06 16:46 095 6 gusting 8 12.2
2019-Dec-06 16:41 076 4 gusting 7 11.7
2019-Dec-06 16:31 111 3 gusting 7 11.7
2019-Dec-06 16:26 099 6 gusting 8 11.7
2019-Dec-06 16:21 106 6 gusting 11 11.7
2019-Dec-06 16:16 082 6 gusting 8 11.7
2019-Dec-06 16:11 096 5 gusting 10 11.7
2019-Dec-06 16:01 098 5 gusting 8 11.7
2019-Dec-06 15:56 100 6 gusting 11 11.7
2019-Dec-06 15:51 088 7 gusting 10 11.7
2019-Dec-06 15:46 106 5 gusting 8 11.7
2019-Dec-06 15:41 088 7 gusting 11 11.7
2019-Dec-06 15:31 114 5 gusting 7 11.7
2019-Dec-06 15:26 095 5 gusting 6 11.7
2019-Dec-06 15:21 114 4 gusting 6 11.7
2019-Dec-06 15:16 115 5 gusting 6 11.7
2019-Dec-06 15:11 109 4 gusting 6 11.7
2019-Dec-06 14:56 102 4 gusting 6 11.7
2019-Dec-06 14:51 109 4 gusting 5 11.7
2019-Dec-06 14:46 097 2 gusting 5 11.7
2019-Dec-06 14:41 116 0 gusting 4 11.1
2019-Dec-06 14:31 116 0 gusting 2 11.1
2019-Dec-06 14:26 148 1 gusting 4 11.1
2019-Dec-06 14:21 185 11.1
2019-Dec-06 14:16 285 10.6
2019-Dec-06 14:11 291 10.6
2019-Dec-06 14:01 109 11.1
2019-Dec-06 13:56 109 11.1
2019-Dec-06 13:51 109 11.1
2019-Dec-06 13:46 109 11.7
2019-Dec-06 13:41 109 11.7
2019-Dec-06 13:31 106 11.7
2019-Dec-06 13:26 101 11.7
2019-Dec-06 13:21 101 11.7
2019-Dec-06 13:16 101 11.7
2019-Dec-06 13:11 101 11.7
2019-Dec-06 13:01 102 11.7
2019-Dec-06 12:56 102 1 gusting 4 11.7
2019-Dec-06 12:51 084 0 gusting 2 12.2
2019-Dec-06 12:46 107 1 gusting 4 12.2
2019-Dec-06 12:41 122 1 gusting 4 12.2
2019-Dec-06 12:31 122 12.2
2019-Dec-06 12:26 150 12.2
2019-Dec-06 12:21 156 12.2
2019-Dec-06 12:16 133 12.2
2019-Dec-06 12:11 133 12.2
2019-Dec-06 12:01 122 0 gusting 2 12.2
2019-Dec-06 11:56 086 0 gusting 6 12.2
2019-Dec-06 11:51 125 0 gusting 1 12.2
2019-Dec-06 11:46 061 12.2
2019-Dec-06 11:41 121 0 gusting 5 12.2
2019-Dec-06 11:31 103 2 gusting 6 12.8
2019-Dec-06 11:26 108 2 gusting 4 12.8
2019-Dec-06 11:21 086 1 gusting 5 12.8
2019-Dec-06 11:16 098 0 gusting 2 12.8
2019-Dec-06 11:11 113 2 gusting 4 12.8
2019-Dec-06 11:01 091 0 gusting 1 12.8
2019-Dec-06 10:56 085 0 gusting 4 12.8
2019-Dec-06 10:51 073 1 gusting 4 12.8
2019-Dec-06 10:46 078 0 gusting 5 12.8
2019-Dec-06 10:41 094 2 gusting 6 12.8
2019-Dec-06 10:31 334 12.2
2019-Dec-06 10:26 334 12.2
2019-Dec-06 10:21 304 11.7
2019-Dec-06 10:16 304 11.7
2019-Dec-06 10:11 303 11.7
2019-Dec-06 10:01 272 0 gusting 4 11.7
2019-Dec-06 09:56 085 0 gusting 4 11.7
2019-Dec-06 09:51 287 11.7
2019-Dec-06 09:46 263 0 gusting 1 11.7
2019-Dec-06 09:41 146 11.7
2019-Dec-06 09:31 146 11.7
2019-Dec-06 09:26 147 11.7
2019-Dec-06 09:21 146 11.7
2019-Dec-06 09:16 091 11.7
2019-Dec-06 09:11 098 0 gusting 2 11.7
2019-Dec-06 09:01 110 0 gusting 6 11.7
2019-Dec-06 08:56 095 2 gusting 6 11.7
2019-Dec-06 08:51 116 5 gusting 7 11.7
2019-Dec-06 08:46 069 4 gusting 6 11.7
2019-Dec-06 08:41 090 5 gusting 7 11.7
2019-Dec-06 08:31 100 4 gusting 6 11.7
2019-Dec-06 08:26 092 4 gusting 5 11.7
2019-Dec-06 08:21 118 4 gusting 5 11.1
2019-Dec-06 08:16 132 4 gusting 5 11.1
2019-Dec-06 08:11 136 2 gusting 5 11.1
2019-Dec-06 08:01 110 11.1
2019-Dec-06 07:56 110 11.1
2019-Dec-06 07:51 110 1 gusting 2 11.1
2019-Dec-06 07:46 107 0 gusting 6 11.1
2019-Dec-06 07:41 094 5 gusting 7 11.1
2019-Dec-06 07:31 089 6 gusting 8 11.1
2019-Dec-06 07:26 091 4 gusting 6 11.1
2019-Dec-06 07:21 126 1 gusting 6 11.1
2019-Dec-06 07:16 092 4 gusting 6 11.1
2019-Dec-06 07:11 102 6 gusting 7 11.1
2019-Dec-06 07:01 118 0 gusting 5 11.1
2019-Dec-06 06:56 155 10.6
2019-Dec-06 06:51 107 0 gusting 2 10.6
2019-Dec-06 06:46 030 10.6
2019-Dec-06 06:41 233 10.6
2019-Dec-06 06:31 272 0 gusting 4 10.6
2019-Dec-06 06:26 280 2 gusting 5 10.6
2019-Dec-06 06:21 221 1 gusting 4 10.6
2019-Dec-06 06:16 164 0 gusting 5 11.1
2019-Dec-06 06:11 050 0 gusting 8 11.1
2019-Dec-06 06:01 089 5 gusting 8 11.1
2019-Dec-06 05:56 110 6 gusting 10 11.1
2019-Dec-06 05:51 108 5 gusting 7 11.1
2019-Dec-06 05:46 128 4 gusting 6 11.1
2019-Dec-06 05:41 104 4 gusting 8 11.1
2019-Dec-06 05:31 088 6 gusting 8 10.6
2019-Dec-06 05:26 081 6 gusting 7 10.6
2019-Dec-06 05:21 084 4 gusting 10 10.6
2019-Dec-06 05:16 055 2 gusting 6 10.6
2019-Dec-06 05:11 076 3 gusting 7 10.6
2019-Dec-06 05:01 146 10.6
2019-Dec-06 04:56 146 10.6
2019-Dec-06 04:51 106 2 gusting 4 10.6
2019-Dec-06 04:46 118 10.0
2019-Dec-06 04:41 204 10.0
2019-Dec-06 04:31 279 10.0
2019-Dec-06 04:26 256 10.0
2019-Dec-06 04:21 208 10.0
2019-Dec-06 04:16 124 10.0
2019-Dec-06 04:11 121 0 gusting 2 10.6
2019-Dec-06 04:01 085 10.6
2019-Dec-06 03:56 085 10.6
2019-Dec-06 03:51 117 3 gusting 5 10.6
2019-Dec-06 03:46 115 4 gusting 6 10.6
2019-Dec-06 03:41 117 3 gusting 6 10.6
2019-Dec-06 03:31 129 4 gusting 5 10.0
2019-Dec-06 03:26 143 10.0
2019-Dec-06 03:21 128 10.0
2019-Dec-06 03:16 128 10.0
2019-Dec-06 03:11 124 10.0
2019-Dec-06 03:01 123 2 gusting 5 10.0
2019-Dec-06 02:56 103 2 gusting 6 10.0
2019-Dec-06 02:51 112 2 gusting 5 10.0
2019-Dec-06 02:46 120 0 gusting 2 10.0
2019-Dec-06 02:41 298 8.9
2019-Dec-06 02:31 345 9.4
2019-Dec-06 02:26 069 10.0
2019-Dec-06 02:21 078 0 gusting 5 9.4
2019-Dec-06 02:16 013 0 gusting 1 9.4
2019-Dec-06 02:11 012 8.9
2019-Dec-06 02:01 102 8.9
2019-Dec-06 01:56 151 8.9
2019-Dec-06 01:51 151 8.9
2019-Dec-06 01:46 151 8.9
2019-Dec-06 01:41 152 9.4
2019-Dec-06 01:31 152 9.4
2019-Dec-06 01:26 152 9.4
2019-Dec-06 01:21 152 9.4
2019-Dec-06 01:16 152 10.0
2019-Dec-06 01:11 151 10.0
2019-Dec-06 01:01 151 10.0
2019-Dec-06 00:56 168 10.0
2019-Dec-06 00:51 182 10.0
2019-Dec-06 00:46 137 0 gusting 2 10.0
2019-Dec-06 00:41 150 0 gusting 2 10.0
2019-Dec-06 00:31 165 10.0
2019-Dec-06 00:26 151 0 gusting 4 10.6
2019-Dec-06 00:21 113 1 gusting 4 10.6
2019-Dec-06 00:16 092 2 gusting 4 10.6
2019-Dec-06 00:11 129 1 gusting 4 10.0
2019-Dec-06 00:01 146 0 gusting 2 10.0
2019-Dec-05 23:56 127 1 gusting 4 10.0
2019-Dec-05 23:51 138 1 gusting 6 10.0
2019-Dec-05 23:46 124 4 gusting 6 10.0
2019-Dec-05 23:41 118 4 gusting 6 10.0
2019-Dec-05 23:31 094 1 gusting 6 10.0
2019-Dec-05 23:26 095 2 gusting 7 10.0
2019-Dec-05 23:21 109 6 gusting 7 10.0
2019-Dec-05 23:16 121 5 gusting 6 10.0
2019-Dec-05 23:11 115 4 gusting 5 10.0
2019-Dec-05 23:01 132 1 gusting 5 10.0
2019-Dec-05 22:56 134 1 gusting 2 10.0
2019-Dec-05 22:51 138 0 gusting 1 10.0
2019-Dec-05 22:46 116 0 gusting 4 10.0
2019-Dec-05 22:41 116 0 gusting 5 10.0
2019-Dec-05 22:31 147 0 gusting 4 10.0
2019-Dec-05 22:26 140 0 gusting 1 10.0
2019-Dec-05 22:21 087 0 gusting 4 10.0
2019-Dec-05 22:16 095 4 gusting 6 10.0
2019-Dec-05 22:11 123 1 gusting 5 10.0
2019-Dec-05 22:01 082 2 gusting 6 10.6
2019-Dec-05 21:56 090 1 gusting 5 10.0
2019-Dec-05 21:51 111 4 gusting 6 10.0
2019-Dec-05 21:46 110 6 gusting 8 10.0
2019-Dec-05 21:41 133 5 gusting 6 10.0
2019-Dec-05 21:31 089 10.0
2019-Dec-05 21:26 088 10.0
2019-Dec-05 21:21 087 10.0
2019-Dec-05 21:16 061 0 gusting 2 10.0
2019-Dec-05 21:11 086 3 gusting 5 10.0
2019-Dec-05 21:01 094 2 gusting 4 10.0
2019-Dec-05 20:56 115 9.4
2019-Dec-05 20:51 014 0 gusting 1 9.4
2019-Dec-05 20:46 003 8.9
2019-Dec-05 20:41 283 8.9
2019-Dec-05 20:31 287 8.9
2019-Dec-05 20:26 287 8.9
2019-Dec-05 20:21 304 8.9
2019-Dec-05 20:16 300 1 gusting 2 8.9
2019-Dec-05 20:11 291 0 gusting 1 8.9
2019-Dec-05 20:01 272 8.9
2019-Dec-05 19:56 272 0 gusting 1 8.9
2019-Dec-05 19:51 290 1 gusting 2 8.9
2019-Dec-05 19:46 321 8.9
2019-Dec-05 19:41 320 8.9
2019-Dec-05 19:31 321 8.9
2019-Dec-05 19:26 321 8.3
2019-Dec-05 19:21 327 8.9
2019-Dec-05 19:16 132 8.9
2019-Dec-05 19:11 132 0 gusting 4 8.9
2019-Dec-05 19:01 077 9.4
2019-Dec-05 18:56 077 8.3
2019-Dec-05 18:51 077 8.3
2019-Dec-05 18:46 077 8.3
2019-Dec-05 18:41 077 8.9
2019-Dec-05 18:31 077 8.9
2019-Dec-05 18:26 077 1 gusting 2 8.9
2019-Dec-05 18:21 092 2 gusting 5 8.9
2019-Dec-05 18:16 137 1 gusting 5 8.3
2019-Dec-05 18:11 177 0 gusting 1 8.3
2019-Dec-05 18:01 301 1 gusting 2 9.4
2019-Dec-05 17:56 101 10.0
2019-Dec-05 17:51 100 1 gusting 2 9.4
2019-Dec-05 17:46 050 9.4
2019-Dec-05 17:41 046 9.4
2019-Dec-05 17:31 046 9.4
2019-Dec-05 17:26 046 9.4
2019-Dec-05 17:21 046 9.4
2019-Dec-05 17:16 046 9.4
2019-Dec-05 17:11 046 10.0
2019-Dec-05 17:01 046 10.0
2019-Dec-05 16:56 046 10.6
2019-Dec-05 16:51 046 10.6
2019-Dec-05 16:46 046 10.6
2019-Dec-05 16:41 046 10.6
2019-Dec-05 16:31 045 11.1
2019-Dec-05 16:26 045 11.1
2019-Dec-05 16:21 046 0 gusting 4 11.1
2019-Dec-05 16:16 048 1 gusting 5 11.1
2019-Dec-05 16:11 038 11.1
2019-Dec-05 16:01 018 11.1
2019-Dec-05 15:56 043 11.1
2019-Dec-05 15:51 049 11.1
2019-Dec-05 15:46 051 11.1
2019-Dec-05 15:41 063 0 gusting 4 11.1
2019-Dec-05 15:31 078 1 gusting 2 11.1
2019-Dec-05 15:26 281 0 gusting 2 11.1
2019-Dec-05 15:21 091 0 gusting 2 11.1
2019-Dec-05 15:16 040 1 gusting 5 11.1
2019-Dec-05 15:11 039 1 gusting 5 11.1
2019-Dec-05 15:01 064 2 gusting 2 11.1
2019-Dec-05 14:56 068 2 gusting 4 11.1
2019-Dec-05 14:51 040 0 gusting 2 11.1
2019-Dec-05 14:46 082 11.1
2019-Dec-05 14:41 083 0 gusting 1 11.7
2019-Dec-05 14:31 156 11.7
2019-Dec-05 14:26 165 11.7
2019-Dec-05 14:21 165 11.7
2019-Dec-05 14:16 165 12.2
2019-Dec-05 14:11 165 12.2
2019-Dec-05 14:01 165 12.2
2019-Dec-05 13:56 165 12.2
2019-Dec-05 13:51 165 12.2
2019-Dec-05 13:46 169 12.2
2019-Dec-05 13:41 169 12.8
2019-Dec-05 13:31 169 13.3
2019-Dec-05 13:26 168 13.3
2019-Dec-05 13:21 167 13.3
2019-Dec-05 13:16 144 13.3
2019-Dec-05 13:11 118 13.3
2019-Dec-05 13:01 142 14.4
2019-Dec-05 12:56 205 14.4
2019-Dec-05 12:51 319 14.4
2019-Dec-05 12:46 204 0 gusting 1 13.9
2019-Dec-05 12:41 150 0 gusting 2 13.9
2019-Dec-05 12:31 210 0 gusting 2 14.4
2019-Dec-05 12:26 146 1 gusting 4 13.3
2019-Dec-05 12:21 096 0 gusting 2 14.4
2019-Dec-05 12:16 140 14.4
2019-Dec-05 12:11 136 14.4
2019-Dec-05 12:01 111 1 gusting 4 13.3